| time (UTC) | temp F | wind direction | speed knots | gust knots | rain 1hr in | rain 24hr in | rain mn in | humidity % | barometer mb |
| 20260903035930 | 68 | 0.0 | 0.0 | 0.00 | 0.00 | 0.00 | 79 | 1018.2 | |
| 20260903034947 | 68 | 0.0 | 0.0 | 0.00 | 0.00 | 0.00 | 79 | 1018.1 | |
| 20260903033943 | 69 | 0.0 | 0.0 | 0.00 | 0.00 | 0.00 | 77 | 1018.1 | |
| 20260903032914 | 69 | 0.0 | 0.0 | 0.00 | 0.00 | 0.00 | 75 | 1018.1 | |
| 20260903031910 | 70 | 0.0 | 0.0 | 0.00 | 0.00 | 0.00 | 74 | 1017.9 | |
| 20260903030949 | 70 | 0.0 | 0.0 | 0.00 | 0.00 | 0.00 | 74 | 1017.6 | |
| 20260903025903 | 70 | 315 | 0.0 | 0.9 | 0.00 | 0.00 | 0.00 | 74 | 1017.8 |
| 20260903024919 | 70 | 0.0 | 0.0 | 0.00 | 0.00 | 0.00 | 75 | 1017.9 | |
| 20260903023510 | 70 | 0.0 | 0.0 | 0.00 | 0.00 | 0.00 | 76 | 1018.1 | |
| 20260903022506 | 70 | 0.0 | 0.0 | 0.00 | 0.00 | 0.00 | 76 | 1017.8 | |
| 20260903021503 | 70 | 0.0 | 0.0 | 0.00 | 0.00 | 0.00 | 77 | 1018.1 | |
| 20260903021001 | 70 | 0.0 | 0.0 | 0.00 | 0.00 | 0.00 | 77 | 1017.9 | |
| 20260903020018 | 70 | 315 | 0.9 | 1.7 | 0.00 | 0.00 | 0.00 | 79 | 1018.1 |
| 20260903014954 | 70 | 0.0 | 0.0 | 0.00 | 0.00 | 0.00 | 79 | 1017.6 | |
| 20260903013953 | 70 | 0.0 | 0.0 | 0.00 | 0.00 | 0.00 | 79 | 1017.7 | |
| 20260903012947 | 70 | 337 | 0.9 | 1.7 | 0.00 | 0.00 | 0.00 | 79 | 1017.7 |
| 20260903011958 | 71 | 0.0 | 0.0 | 0.00 | 0.00 | 0.00 | 79 | 1017.8 | |
| 20260903010934 | 71 | 0.0 | 0.0 | 0.00 | 0.00 | 0.00 | 78 | 1017.8 | |
| 20260903005951 | 71 | 0.0 | 0.0 | 0.00 | 0.00 | 0.00 | 78 | 1017.8 | |
| 20260903004927 | 71 | 0.0 | 0.0 | 0.00 | 0.00 | 0.00 | 77 | 1017.6 | |
| 20260903003923 | 72 | 0.0 | 0.9 | 0.00 | 0.00 | 0.00 | 77 | 1017.6 | |
| 20260903002454 | 72 | 0.0 | 0.0 | 0.00 | 0.00 | 0.00 | 77 | 1017.9 | |
| 20260903001449 | 72 | 0.0 | 0.0 | 0.00 | 0.00 | 0.00 | 76 | 1017.9 | |
| 20260903000440 | 72 | 0.0 | 0.0 | 0.00 | 0.00 | 0.00 | 77 | 1017.9 | |
| 20260902235437 | 71 | 0.0 | 0.0 | 0.00 | 0.00 | 0.00 | 77 | 1017.7 | |
| 20260902234453 | 71 | 0.0 | 0.0 | 0.00 | 0.00 | 0.00 | 78 | 1017.7 | |
| 20260902233429 | 72 | 0.0 | 0.0 | 0.00 | 0.00 | 0.00 | 75 | 1017.8 | |
| 20260902232425 | 73 | 0.0 | 0.0 | 0.00 | 0.00 | 0.00 | 73 | 1017.7 | |
| 20260902231423 | 73 | 0.0 | 0.0 | 0.00 | 0.00 | 0.00 | 74 | 1017.7 | |
| 20260902230438 | 73 | 0.0 | 0.9 | 0.00 | 0.00 | 0.00 | 74 | 1017.7 | |
| 20260902225415 | 73 | 0.0 | 0.0 | 0.00 | 0.00 | 0.00 | 73 | 1017.5 | |
| 20260902224414 | 74 | 315 | 0.0 | 0.9 | 0.00 | 0.00 | 0.00 | 72 | 1017.7 |
| 20260902223408 | 74 | 0.0 | 0.0 | 0.00 | 0.00 | 0.00 | 72 | 1017.6 | |
| 20260902222425 | 74 | 0.0 | 0.9 | 0.00 | 0.00 | 0.00 | 73 | 1017.5 | |
| 20260902221401 | 74 | 0.0 | 0.0 | 0.00 | 0.00 | 0.00 | 74 | 1017.4 | |
| 20260902220352 | 74 | 0.0 | 0.0 | 0.00 | 0.00 | 0.00 | 73 | 1017.3 | |
| 20260902215348 | 75 | 315 | 0.9 | 1.7 | 0.00 | 0.00 | 0.00 | 72 | 1017.4 |
| 20260902214345 | 76 | 0.0 | 0.9 | 0.00 | 0.00 | 0.00 | 71 | 1017.3 | |
| 20260902213341 | 77 | 0.0 | 0.0 | 0.00 | 0.00 | 0.00 | 69 | 1017.2 | |
| 20260902212339 | 77 | 0.0 | 0.0 | 0.00 | 0.00 | 0.00 | 68 | 1017.1 | |
| 20260902211349 | 77 | 0.0 | 0.0 | 0.00 | 0.00 | 0.00 | 67 | 1017.2 | |
| 20260902210324 | 77 | 0.0 | 0.0 | 0.00 | 0.00 | 0.00 | 67 | 1017.1 | |
| 20260902205342 | 78 | 0.0 | 0.0 | 0.00 | 0.00 | 0.00 | 67 | 1017.2 | |
| 20260902204317 | 78 | 0.0 | 0.9 | 0.00 | 0.00 | 0.00 | 66 | 1017.0 | |
| 20260902203314 | 78 | 0.0 | 0.0 | 0.00 | 0.00 | 0.00 | 66 | 1017.1 | |
| 20260902202331 | 78 | 337 | 0.0 | 0.9 | 0.00 | 0.00 | 0.00 | 67 | 1017.1 |
| 20260902201347 | 78 | 0.0 | 0.0 | 0.00 | 0.00 | 0.00 | 66 | 1017.0 | |
| 20260902200303 | 79 | 0.0 | 0.0 | 0.00 | 0.00 | 0.00 | 66 | 1017.0 | |
| 20260902195300 | 79 | 0.0 | 0.0 | 0.00 | 0.00 | 0.00 | 65 | 1017.0 | |
| 20260902194310 | 79 | 0.0 | 0.0 | 0.00 | 0.00 | 0.00 | 64 | 1016.9 | |
| 20260902193246 | 79 | 0.0 | 0.0 | 0.00 | 0.00 | 0.00 | 64 | 1016.9 | |
| 20260902192236 | 80 | 0.0 | 0.0 | 0.00 | 0.00 | 0.00 | 64 | 1016.9 | |
| 20260902191229 | 80 | 0.0 | 0.0 | 0.00 | 0.00 | 0.00 | 63 | 1016.9 | |
| 20260902190226 | 81 | 0.0 | 0.0 | 0.00 | 0.00 | 0.00 | 61 | 1016.7 | |
| 20260902185225 | 82 | 0.0 | 0.0 | 0.00 | 0.00 | 0.00 | 60 | 1016.4 | |
| 20260902184216 | 82 | 0.0 | 0.0 | 0.00 | 0.00 | 0.00 | 59 | 1016.1 | |
| 20260902183213 | 82 | 0.0 | 0.0 | 0.00 | 0.00 | 0.00 | 58 | 1016.3 | |
| 20260902182209 | 83 | 0.0 | 0.0 | 0.00 | 0.00 | 0.00 | 57 | 1016.2 | |
| 20260902181205 | 84 | 0.0 | 0.0 | 0.00 | 0.00 | 0.00 | 55 | 1016.2 | |
| 20260902180202 | 84 | 0.0 | 0.0 | 0.00 | 0.00 | 0.00 | 54 | 1016.3 | |
| 20260902175159 | 85 | 0.0 | 0.0 | 0.00 | 0.00 | 0.00 | 53 | 1016.1 | |
| 20260902174148 | 85 | 337 | 0.0 | 0.9 | 0.00 | 0.00 | 0.00 | 52 | 1015.9 |
| 20260902173139 | 85 | 0.0 | 0.0 | 0.00 | 0.00 | 0.00 | 52 | 1015.8 | |
| 20260902172136 | 86 | 337 | 0.0 | 0.9 | 0.00 | 0.00 | 0.00 | 50 | 1016.0 |
| 20260902171125 | 86 | 0.0 | 0.9 | 0.00 | 0.00 | 0.00 | 48 | 1015.9 | |
| 20260902170121 | 87 | 0.0 | 0.9 | 0.00 | 0.00 | 0.00 | 49 | 1016.0 | |
| 20260902165117 | 87 | 0.0 | 0.9 | 0.00 | 0.00 | 0.00 | 49 | 1015.9 | |
| 20260902164113 | 87 | 0.0 | 0.0 | 0.00 | 0.00 | 0.00 | 48 | 1016.0 | |
| 20260902163111 | 87 | 337 | 0.0 | 1.7 | 0.00 | 0.00 | 0.00 | 47 | 1015.9 |
| 20260902162107 | 87 | 315 | 0.0 | 1.7 | 0.00 | 0.00 | 0.00 | 46 | 1015.9 |
| 20260902161103 | 87 | 0.0 | 0.0 | 0.00 | 0.00 | 0.00 | 48 | 1016.1 | |
| 20260902153804 | 87 | 0.0 | 0.0 | 0.00 | 0.00 | 0.00 | 49 | 1016.4 | |
| 20260902152758 | 88 | 315 | 0.9 | 1.7 | 0.00 | 0.00 | 0.00 | 49 | 1016.3 |
| 20260902151755 | 87 | 0.0 | 0.0 | 0.00 | 0.00 | 0.00 | 47 | 1016.5 | |
| 20260902150811 | 87 | 0.0 | 0.9 | 0.00 | 0.00 | 0.00 | 48 | 1016.4 | |
| 20260902145748 | 87 | 0.0 | 0.0 | 0.00 | 0.00 | 0.00 | 48 | 1016.5 | |
| 20260902144740 | 87 | 315 | 0.0 | 1.7 | 0.00 | 0.00 | 0.00 | 47 | 1016.6 |
| 20260902143728 | 88 | 315 | 0.0 | 0.9 | 0.00 | 0.00 | 0.00 | 49 | 1016.8 |
| 20260902142724 | 88 | 337 | 0.0 | 1.7 | 0.00 | 0.00 | 0.00 | 44 | 1016.9 |
| 20260902141721 | 89 | 0.0 | 0.0 | 0.00 | 0.00 | 0.00 | 45 | 1016.8 | |
| 20260902140717 | 88 | 0.0 | 0.0 | 0.00 | 0.00 | 0.00 | 47 | 1017.0 | |
| 20260902135714 | 88 | 315 | 0.9 | 1.7 | 0.00 | 0.00 | 0.00 | 47 | 1016.9 |
| 20260902134710 | 88 | 315 | 0.9 | 1.7 | 0.00 | 0.00 | 0.00 | 49 | 1016.7 |
| 20260902133707 | 89 | 0.0 | 0.0 | 0.00 | 0.00 | 0.00 | 49 | 1017.0 | |
| 20260902132703 | 89 | 315 | 0.9 | 1.7 | 0.00 | 0.00 | 0.00 | 49 | 1017.0 |
| 20260902131659 | 88 | 315 | 0.0 | 1.7 | 0.00 | 0.00 | 0.00 | 50 | 1017.3 |
| 20260902123924 | 86 | 90 | 0.9 | 1.7 | 0.00 | 0.00 | 0.00 | 54 | 1017.5 |
| 20260902122920 | 85 | 315 | 2.6 | 2.6 | 0.00 | 0.00 | 0.00 | 55 | 1017.6 |
| 20260902121916 | 87 | 315 | 0.0 | 1.7 | 0.00 | 0.00 | 0.00 | 53 | 1017.9 |
| 20260902120913 | 86 | 135 | 1.7 | 1.7 | 0.00 | 0.00 | 0.00 | 54 | 1017.8 |
| 20260902115910 | 87 | 292 | 1.7 | 2.6 | 0.00 | 0.00 | 0.00 | 53 | 1017.9 |
| 20260902114905 | 86 | 292 | 0.9 | 2.6 | 0.00 | 0.00 | 0.00 | 55 | 1018.3 |
| 20260902113902 | 88 | 0.0 | 0.9 | 0.00 | 0.00 | 0.00 | 54 | 1018.3 | |
| 20260902112859 | 85 | 112 | 1.7 | 2.6 | 0.00 | 0.00 | 0.00 | 56 | 1018.4 |
| 20260902111414 | 87 | 315 | 0.0 | 1.7 | 0.00 | 0.00 | 0.00 | 54 | 1018.6 |
| 20260902110412 | 86 | 315 | 0.0 | 0.9 | 0.00 | 0.00 | 0.00 | 55 | 1018.5 |
| 20260902104500 | 86 | 225 | 0.0 | 0.9 | 0.00 | 0.00 | 0.00 | 56 | 1018.8 |
| 20260902103436 | 86 | 247 | 0.0 | 0.9 | 0.00 | 0.00 | 0.00 | 54 | 1018.8 |
| 20260902102426 | 82 | 90 | 0.9 | 2.6 | 0.00 | 0.00 | 0.00 | 59 | 1019.0 |
| 20260902101423 | 81 | 22 | 0.0 | 1.7 | 0.00 | 0.00 | 0.00 | 61 | 1019.0 |
| 20260902100419 | 82 | 315 | 0.9 | 1.7 | 0.00 | 0.00 | 0.00 | 59 | 1019.1 |
| 20260902095416 | 81 | 315 | 2.6 | 5.2 | 0.00 | 0.00 | 0.00 | 60 | 1019.0 |
| 20260902094412 | 80 | 337 | 2.6 | 5.2 | 0.00 | 0.00 | 0.00 | 61 | 1019.0 |
| 20260902092928 | 84 | 202 | 0.0 | 0.9 | 0.00 | 0.00 | 0.00 | 57 | 1019.2 |
| 20260902091925 | 81 | 11 | 1.7 | 3.5 | 0.00 | 0.00 | 0.00 | 61 | 1019.1 |
| 20260902090955 | 81 | 315 | 2.6 | 3.5 | 0.00 | 0.00 | 0.00 | 61 | 1019.4 |
| 20260902085912 | 81 | 0.0 | 0.9 | 0.00 | 0.00 | 0.00 | 62 | 1019.2 | |
| 20260902084907 | 80 | 0 | 1.7 | 5.2 | 0.00 | 0.00 | 0.00 | 64 | 1019.2 |
| 20260902083902 | 78 | 315 | 1.7 | 1.7 | 0.00 | 0.00 | 0.00 | 66 | 1019.1 |
| 20260902082859 | 79 | 112 | 2.6 | 7.8 | 0.00 | 0.00 | 0.00 | 66 | 1019.1 |
| 20260902081850 | 79 | 315 | 3.5 | 7.0 | 0.00 | 0.00 | 0.00 | 65 | 1019.0 |
| 20260902080910 | 79 | 315 | 1.7 | 3.5 | 0.00 | 0.00 | 0.00 | 64 | 1019.1 |
| 20260902075841 | 79 | 135 | 0.9 | 2.6 | 0.00 | 0.00 | 0.00 | 62 | 1019.0 |
| 20260902074839 | 78 | 22 | 0.0 | 1.7 | 0.00 | 0.00 | 0.00 | 67 | 1019.0 |
| 20260902073835 | 78 | 315 | 0.9 | 2.6 | 0.00 | 0.00 | 0.00 | 65 | 1018.8 |
| 20260902072827 | 76 | 315 | 2.6 | 5.2 | 0.00 | 0.00 | 0.00 | 68 | 1018.6 |
| 20260902071823 | 77 | 337 | 2.6 | 5.2 | 0.00 | 0.00 | 0.00 | 70 | 1018.7 |
| 20260902070819 | 76 | 90 | 0.0 | 1.7 | 0.00 | 0.00 | 0.00 | 72 | 1018.6 |
| 20260902065815 | 75 | 292 | 0.9 | 2.6 | 0.00 | 0.00 | 0.00 | 73 | 1018.6 |
| 20260902064813 | 75 | 315 | 2.6 | 5.2 | 0.00 | 0.00 | 0.00 | 73 | 1018.7 |
| 20260902063809 | 75 | 315 | 1.7 | 2.6 | 0.00 | 0.00 | 0.00 | 75 | 1018.5 |
| 20260902062807 | 74 | 315 | 1.7 | 2.6 | 0.00 | 0.00 | 0.00 | 75 | 1018.5 |
| 20260902061802 | 73 | 315 | 1.7 | 2.6 | 0.00 | 0.00 | 0.00 | 77 | 1018.7 |
| 20260902060752 | 72 | 315 | 1.7 | 2.6 | 0.00 | 0.00 | 0.00 | 79 | 1018.4 |
| 20260902055749 | 71 | 315 | 1.7 | 2.6 | 0.00 | 0.00 | 0.00 | 81 | 1018.5 |
| 20260902054741 | 70 | 315 | 2.6 | 2.6 | 0.00 | 0.00 | 0.00 | 82 | 1018.3 |
| 20260902053740 | 70 | 0.0 | 0.0 | 0.00 | 0.00 | 0.00 | 82 | 1018.4 | |
| 20260902052737 | 70 | 0.0 | 0.0 | 0.00 | 0.00 | 0.00 | 83 | 1018.3 | |
| 20260902051735 | 70 | 0.0 | 0.0 | 0.00 | 0.00 | 0.00 | 83 | 1018.1 | |
| 20260902050727 | 70 | 315 | 0.9 | 1.7 | 0.00 | 0.00 | 0.00 | 83 | 1017.8 |
| 20260902045722 | 70 | 0.0 | 0.0 | 0.00 | 0.00 | 0.00 | 83 | 1018.1 | |
| 20260902044718 | 70 | 0.0 | 0.0 | 0.00 | 0.00 | 0.00 | 82 | 1018.2 | |
| 20260902043714 | 70 | 0.0 | 0.0 | 0.00 | 0.00 | 0.00 | 82 | 1018.1 | |
| 20260902042712 | 70 | 0.0 | 0.0 | 0.00 | 0.00 | 0.00 | 82 | 1017.6 | |
| 20260902041708 | 70 | 0.0 | 0.0 | 0.00 | 0.00 | 0.00 | 81 | 1017.8 | |
| 20260902040705 | 70 | 0.0 | 0.9 | 0.00 | 0.00 | 0.00 | 82 | 1017.7 |